,,PressureMeas_1m,,PRMeasQMR101_1,,RHStat155_1m_1,,SRMeasQMS101R_1m,,TAStat155_1m_1,,GenWind_1,,GenWind_1,
2018-05-20, 07:00:06,VALID,915.468,VALID,0.0,VALID,97.054,VALID,47.901,VALID,20.78,VALID,148.0,VALID,0.481,
2018-05-20, 07:01:06,VALID,915.479,VALID,0.0,VALID,97.019,VALID,50.226,VALID,20.795,VALID,145.0,VALID,0.6,
2018-05-20, 07:02:06,VALID,915.469,VALID,0.0,VALID,96.931,VALID,52.643,VALID,20.793,VALID,135.0,VALID,1.204,
2018-05-20, 07:03:06,VALID,915.473,VALID,0.0,VALID,96.898,VALID,55.095,VALID,20.799,VALID,137.0,VALID,0.896,
2018-05-20, 07:04:06,VALID,915.483,VALID,0.0,VALID,96.899,VALID,57.533,VALID,20.81,VALID,132.0,VALID,1.095,
2018-05-20, 07:05:06,VALID,915.508,VALID,0.0,VALID,96.902,VALID,60.052,VALID,20.811,VALID,134.0,VALID,1.296,
2018-05-20, 07:06:06,VALID,915.528,VALID,0.0,VALID,96.858,VALID,62.627,VALID,20.803,VALID,134.0,VALID,1.204,
2018-05-20, 07:07:06,VALID,915.537,VALID,0.0,VALID,96.91,VALID,65.199,VALID,20.81,VALID,140.0,VALID,1.013,
2018-05-20, 07:08:06,VALID,915.54,VALID,0.0,VALID,96.958,VALID,67.837,VALID,20.805,VALID,144.0,VALID,0.815,
2018-05-20, 07:09:06,VALID,915.533,VALID,0.0,VALID,96.976,VALID,50.954,VALID,20.806,VALID,148.0,VALID,0.785,
2018-05-20, 07:10:06,VALID,915.534,VALID,0.0,VALID,96.97,VALID,72.352,VALID,20.819,VALID,149.0,VALID,0.591,
2018-05-20, 07:11:06,VALID,915.538,VALID,0.0,VALID,96.94,VALID,75.095,VALID,20.833,VALID,154.0,VALID,0.255,
2018-05-20, 07:12:06,VALID,915.551,VALID,0.0,VALID,97.046,VALID,77.992,VALID,20.845,VALID,130.0,VALID,1.118,
2018-05-20, 07:13:06,VALID,915.555,VALID,0.0,VALID,97.053,VALID,80.955,VALID,20.831,VALID,131.0,VALID,1.745,
2018-05-20, 07:14:06,VALID,915.571,VALID,0.0,VALID,96.986,VALID,83.94,VALID,20.803,VALID,129.0,VALID,1.806,
2018-05-20, 07:15:06,VALID,915.568,VALID,0.0,VALID,97.007,VALID,87.154,VALID,20.78,VALID,127.0,VALID,2.083,
2018-05-20, 07:16:06,VALID,915.585,VALID,0.0,VALID,97.082,VALID,90.423,VALID,20.773,VALID,126.0,VALID,2.032,
2018-05-20, 07:17:06,VALID,915.563,VALID,0.0,VALID,97.106,VALID,93.785,VALID,20.791,VALID,133.0,VALID,1.619,
2018-05-20, 07:18:06,VALID,915.562,VALID,0.0,VALID,97.052,VALID,97.214,VALID,20.809,VALID,129.0,VALID,1.279,
2018-05-20, 07:19:06,VALID,915.553,VALID,0.0,VALID,96.933,VALID,100.63,VALID,20.85,VALID,133.0,VALID,0.974,
2018-05-20, 07:20:06,VALID,915.559,VALID,0.0,VALID,96.817,VALID,104.081,VALID,20.898,VALID,125.0,VALID,1.455,
2018-05-20, 07:21:06,VALID,915.578,VALID,0.0,VALID,96.623,VALID,107.6,VALID,20.918,VALID,139.0,VALID,0.949,
2018-05-20, 07:22:06,VALID,915.598,VALID,0.0,VALID,96.5,VALID,111.023,VALID,20.948,VALID,126.0,VALID,1.388,
2018-05-20, 07:23:06,VALID,915.63,VALID,0.0,VALID,96.184,VALID,114.596,VALID,20.948,VALID,127.0,VALID,1.923,
2018-05-20, 07:24:06,VALID,915.639,VALID,0.0,VALID,96.028,VALID,118.271,VALID,20.957,VALID,127.0,VALID,1.915,
2018-05-20, 07:25:06,VALID,915.654,VALID,0.0,VALID,96.122,VALID,122.085,VALID,20.982,VALID,130.0,VALID,1.425,
2018-05-20, 07:26:06,VALID,915.664,VALID,0.0,VALID,96.142,VALID,126.043,VALID,20.996,VALID,130.0,VALID,1.96,
2018-05-20, 07:27:06,VALID,915.682,VALID,0.0,VALID,95.965,VALID,130.142,VALID,20.996,VALID,128.0,VALID,2.033,
2018-05-20, 07:28:06,VALID,915.706,VALID,0.0,VALID,96.061,VALID,134.529,VALID,21.002,VALID,123.0,VALID,2.472,
2018-05-20, 07:29:06,VALID,915.706,VALID,0.0,VALID,95.922,VALID,139.348,VALID,20.968,VALID,124.0,VALID,2.566,
2018-05-20, 07:30:06,VALID,915.706,VALID,0.0,VALID,96.073,VALID,144.81,VALID,20.994,VALID,129.0,VALID,1.93,
2018-05-20, 07:31:06,VALID,915.715,VALID,0.0,VALID,96.012,VALID,150.651,VALID,21.017,VALID,120.0,VALID,2.284,
2018-05-20, 07:32:06,VALID,915.729,VALID,0.0,VALID,95.793,VALID,156.156,VALID,21.047,VALID,126.0,VALID,2.645,
2018-05-20, 07:33:06,VALID,915.733,VALID,0.0,VALID,95.408,VALID,161.361,VALID,21.093,VALID,130.0,VALID,2.259,
2018-05-20, 07:34:06,VALID,915.761,VALID,0.0,VALID,95.362,VALID,167.638,VALID,21.169,VALID,125.0,VALID,2.202,
2018-05-20, 07:35:06,VALID,915.773,VALID,0.0,VALID,95.325,VALID,174.714,VALID,21.209,VALID,125.0,VALID,2.01,
2018-05-20, 07:36:06,VALID,915.795,VALID,0.0,VALID,94.974,VALID,182.03,VALID,21.211,VALID,121.0,VALID,2.409,
2018-05-20, 07:37:06,VALID,915.803,VALID,0.0,VALID,94.685,VALID,191.411,VALID,21.252,VALID,113.0,VALID,2.015,
2018-05-20, 07:38:06,VALID,915.811,VALID,0.0,VALID,95.24,VALID,201.368,VALID,21.35,VALID,133.0,VALID,1.586,
2018-05-20, 07:39:06,VALID,915.819,VALID,0.0,VALID,94.818,VALID,211.308,VALID,21.407,VALID,139.0,VALID,1.222,
2018-05-20, 07:40:06,VALID,915.837,VALID,0.0,VALID,94.197,VALID,221.77,VALID,21.479,VALID,131.0,VALID,1.665,
2018-05-20, 07:41:06,VALID,915.857,VALID,0.0,VALID,93.653,VALID,230.771,VALID,21.53,VALID,128.0,VALID,1.673,
2018-05-20, 07:42:06,VALID,915.878,VALID,0.0,VALID,93.343,VALID,237.457,VALID,21.577,VALID,133.0,VALID,1.597,
2018-05-20, 07:43:06,VALID,915.908,VALID,0.0,VALID,93.162,VALID,244.319,VALID,21.65,VALID,136.0,VALID,1.555,
2018-05-20, 07:44:06,VALID,915.923,VALID,0.0,VALID,92.868,VALID,249.135,VALID,21.734,VALID,150.0,VALID,1.298,
2018-05-20, 07:45:06,VALID,915.943,VALID,0.0,VALID,92.39,VALID,251.974,VALID,21.788,VALID,150.0,VALID,0.84,
2018-05-20, 07:46:06,VALID,915.956,VALID,0.0,VALID,92.341,VALID,251.37,VALID,21.871,VALID,134.0,VALID,1.061,
2018-05-20, 07:47:06,VALID,915.977,VALID,0.0,VALID,92.061,VALID,261.656,VALID,21.897,VALID,128.0,VALID,1.814,
2018-05-20, 07:48:06,VALID,915.978,VALID,0.0,VALID,92.178,VALID,263.54,VALID,21.901,VALID,127.0,VALID,1.454,
2018-05-20, 07:49:06,VALID,915.986,VALID,0.0,VALID,92.024,VALID,267.836,VALID,21.973,VALID,131.0,VALID,1.218,
2018-05-20, 07:50:06,VALID,915.986,VALID,0.0,VALID,91.406,VALID,290.084,VALID,22.104,VALID,137.0,VALID,0.865,
2018-05-20, 07:51:06,VALID,915.995,VALID,0.0,VALID,90.841,VALID,299.175,VALID,22.244,VALID,129.0,VALID,1.22,
2018-05-20, 07:52:06,VALID,916.008,VALID,0.0,VALID,90.731,VALID,294.989,VALID,22.319,VALID,125.0,VALID,1.697,
2018-05-20, 07:53:06,VALID,916.015,VALID,0.0,VALID,90.267,VALID,283.072,VALID,22.335,VALID,123.0,VALID,1.666,
2018-05-20, 07:54:06,VALID,916.024,VALID,0.0,VALID,90.107,VALID,237.907,VALID,22.378,VALID,119.0,VALID,1.566,
2018-05-20, 07:55:06,VALID,916.032,VALID,0.0,VALID,91.394,VALID,234.403,VALID,22.505,VALID,95.0,VALID,1.218,
2018-05-20, 07:56:06,VALID,916.036,VALID,0.0,VALID,88.722,VALID,278.793,VALID,22.509,VALID,82.0,VALID,1.964,
2018-05-20, 07:57:06,VALID,916.051,VALID,0.0,VALID,90.012,VALID,338.031,VALID,22.548,VALID,111.0,VALID,0.721,
2018-05-20, 07:58:06,VALID,916.066,VALID,0.0,VALID,90.2,VALID,341.939,VALID,22.73,VALID,117.0,VALID,0.463,
2018-05-20, 07:59:06,VALID,916.069,VALID,0.0,VALID,89.432,VALID,336.664,VALID,22.892,VALID,153.0,VALID,0.007,
2018-05-20, 08:00:06,VALID,916.092,VALID,0.0,VALID,88.235,VALID,323.714,VALID,23.085,VALID,135.0,VALID,0.215,
2018-05-20, 08:01:06,VALID,916.116,VALID,0.0,VALID,86.115,VALID,312.887,VALID,23.297,VALID,145.0,VALID,0.064,
2018-05-20, 08:02:06,VALID,916.144,VALID,0.0,VALID,85.18,VALID,308.56,VALID,23.403,VALID,203.0,VALID,0.099,
2018-05-20, 08:03:06,VALID,916.15,VALID,0.0,VALID,84.692,VALID,302.392,VALID,23.509,VALID,115.0,VALID,0.458,
2018-05-20, 08:04:06,VALID,916.178,VALID,0.0,VALID,84.766,VALID,304.825,VALID,23.584,VALID,105.0,VALID,0.123,
2018-05-20, 08:05:06,VALID,916.205,VALID,0.0,VALID,85.554,VALID,294.071,VALID,23.734,VALID,57.0,VALID,0.327,
2018-05-20, 08:06:06,VALID,916.237,VALID,0.0,VALID,85.823,VALID,289.198,VALID,23.798,VALID,263.0,VALID,0.503,
2018-05-20, 08:07:06,VALID,916.252,VALID,0.0,VALID,86.351,VALID,279.638,VALID,23.419,VALID,229.0,VALID,0.891,
2018-05-20, 08:08:06,VALID,916.283,VALID,0.0,VALID,87.431,VALID,290.211,VALID,22.969,VALID,234.0,VALID,0.552,
2018-05-20, 08:09:06,VALID,916.307,VALID,0.0,VALID,89.08,VALID,285.181,VALID,22.687,VALID,242.0,VALID,0.198,
2018-05-20, 08:10:06,VALID,916.339,VALID,0.0,VALID,90.486,VALID,291.388,VALID,22.655,VALID,236.0,VALID,0.0,
2018-05-20, 08:11:06,VALID,916.363,VALID,0.0,VALID,89.998,VALID,279.244,VALID,22.715,VALID,8.0,VALID,0.387,
2018-05-20, 08:12:06,VALID,916.394,VALID,0.0,VALID,91.024,VALID,257.449,VALID,22.797,VALID,25.0,VALID,0.674,
2018-05-20, 08:13:06,VALID,916.425,VALID,0.0,VALID,89.646,VALID,238.151,VALID,22.81,VALID,10.0,VALID,0.789,
2018-05-20, 08:14:06,VALID,916.456,VALID,0.0,VALID,89.605,VALID,227.108,VALID,22.655,VALID,16.0,VALID,0.807,
2018-05-20, 08:15:06,VALID,916.501,VALID,0.0,VALID,89.806,VALID,234.452,VALID,22.566,VALID,16.0,VALID,0.738,
2018-05-20, 08:16:06,VALID,916.537,VALID,0.0,VALID,90.506,VALID,234.568,VALID,22.477,VALID,3.0,VALID,0.729,
2018-05-20, 08:17:06,VALID,916.583,VALID,0.0,VALID,90.503,VALID,197.68,VALID,22.395,VALID,348.0,VALID,0.93,
2018-05-20, 08:18:06,VALID,916.608,VALID,0.0,VALID,91.351,VALID,204.156,VALID,22.353,VALID,5.0,VALID,0.829,
2018-05-20, 08:19:06,VALID,916.637,VALID,0.0,VALID,91.463,VALID,193.993,VALID,22.349,VALID,359.0,VALID,1.164,
2018-05-20, 08:20:06,VALID,916.675,VALID,0.0,VALID,90.815,VALID,194.26,VALID,22.273,VALID,10.0,VALID,0.948,
2018-05-20, 08:21:06,VALID,916.707,VALID,0.0,VALID,91.012,VALID,200.864,VALID,22.186,VALID,7.0,VALID,0.9,
2018-05-20, 08:22:06,VALID,916.724,VALID,0.0,VALID,91.443,VALID,208.016,VALID,22.157,VALID,356.0,VALID,0.384,
2018-05-20, 08:23:06,VALID,916.751,VALID,0.0,VALID,91.276,VALID,218.213,VALID,22.214,VALID,356.0,VALID,0.548,
2018-05-20, 08:24:06,VALID,916.76,VALID,0.0,VALID,91.478,VALID,227.235,VALID,22.276,VALID,10.0,VALID,0.733,
2018-05-20, 08:25:06,VALID,916.794,VALID,0.0,VALID,89.897,VALID,232.463,VALID,22.298,VALID,9.0,VALID,0.643,
2018-05-20, 08:26:06,VALID,916.803,VALID,0.0,VALID,90.294,VALID,230.642,VALID,22.267,VALID,7.0,VALID,0.42,
2018-05-20, 08:27:06,VALID,916.833,VALID,0.0,VALID,90.61,VALID,228.774,VALID,22.347,VALID,18.0,VALID,0.434,
2018-05-20, 08:28:06,VALID,916.855,VALID,0.0,VALID,89.067,VALID,238.068,VALID,22.464,VALID,342.0,VALID,0.623,
2018-05-20, 08:29:06,VALID,916.878,VALID,0.0,VALID,89.436,VALID,268.231,VALID,22.649,VALID,2.0,VALID,0.423,
2018-05-20, 08:30:06,VALID,916.887,VALID,0.0,VALID,88.146,VALID,287.429,VALID,22.819,VALID,29.0,VALID,0.477,
2018-05-20, 08:31:06,VALID,916.899,VALID,0.0,VALID,87.481,VALID,275.947,VALID,22.945,VALID,39.0,VALID,0.491,
2018-05-20, 08:32:06,VALID,916.903,VALID,0.0,VALID,86.67,VALID,264.702,VALID,23.009,VALID,340.0,VALID,0.549,
2018-05-20, 08:33:06,VALID,916.911,VALID,0.0,VALID,85.32,VALID,314.175,VALID,23.023,VALID,346.0,VALID,0.714,
2018-05-20, 08:34:06,VALID,916.938,VALID,0.0,VALID,86.233,VALID,444.909,VALID,22.968,VALID,3.0,VALID,0.386,
2018-05-20, 08:35:06,VALID,916.955,VALID,0.0,VALID,87.084,VALID,339.179,VALID,23.011,VALID,356.0,VALID,0.202,
2018-05-20, 08:36:06,VALID,916.964,VALID,0.0,VALID,86.514,VALID,301.689,VALID,23.195,VALID,339.0,VALID,0.404,
2018-05-20, 08:37:06,VALID,916.995,VALID,0.0,VALID,85.501,VALID,248.431,VALID,23.327,VALID,353.0,VALID,0.673,
2018-05-20, 08:38:06,VALID,917.007,VALID,0.0,VALID,85.213,VALID,245.382,VALID,23.226,VALID,349.0,VALID,0.763,
2018-05-20, 08:39:06,VALID,917.046,VALID,0.0,VALID,85.368,VALID,249.547,VALID,23.067,VALID,9.0,VALID,0.675,
2018-05-20, 08:40:06,VALID,917.061,VALID,0.0,VALID,86.018,VALID,269.064,VALID,22.924,VALID,359.0,VALID,0.028,
2018-05-20, 08:41:06,VALID,917.098,VALID,0.0,VALID,86.643,VALID,275.746,VALID,22.905,VALID,18.0,VALID,0.06,
2018-05-20, 08:42:06,VALID,917.113,VALID,0.0,VALID,86.58,VALID,275.659,VALID,22.943,VALID,63.0,VALID,0.035,
2018-05-20, 08:43:06,VALID,917.117,VALID,0.0,VALID,86.428,VALID,266.952,VALID,23.05,VALID,109.0,VALID,0.056,
2018-05-20, 08:44:06,VALID,917.121,VALID,0.0,VALID,85.414,VALID,253.131,VALID,23.235,VALID,159.0,VALID,0.005,
2018-05-20, 08:45:06,VALID,917.122,VALID,0.0,VALID,84.808,VALID,240.355,VALID,23.384,VALID,157.0,VALID,0.063,
2018-05-20, 08:46:06,VALID,917.119,VALID,0.0,VALID,84.716,VALID,235.563,VALID,23.37,VALID,190.0,VALID,0.304,
2018-05-20, 08:47:06,VALID,917.115,VALID,0.0,VALID,84.948,VALID,233.128,VALID,23.328,VALID,173.0,VALID,0.164,
2018-05-20, 08:48:06,VALID,917.114,VALID,0.0,VALID,85.026,VALID,227.905,VALID,23.317,VALID,160.0,VALID,0.0,
2018-05-20, 08:49:06,VALID,917.092,VALID,0.0,VALID,84.871,VALID,218.698,VALID,23.352,VALID,166.0,VALID,0.0,
2018-05-20, 08:50:06,VALID,917.098,VALID,0.0,VALID,84.554,VALID,206.181,VALID,23.46,VALID,177.0,VALID,0.0,
2018-05-20, 08:51:06,VALID,917.089,VALID,0.0,VALID,83.802,VALID,197.535,VALID,23.587,VALID,189.0,VALID,0.0,
2018-05-20, 08:52:06,VALID,917.088,VALID,0.0,VALID,83.159,VALID,200.155,VALID,23.675,VALID,186.0,VALID,0.0,
2018-05-20, 08:53:06,VALID,917.088,VALID,0.0,VALID,83.867,VALID,213.64,VALID,23.823,VALID,90.0,VALID,0.159,
2018-05-20, 08:54:06,VALID,917.091,VALID,0.0,VALID,83.269,VALID,228.782,VALID,23.955,VALID,79.0,VALID,0.181,
2018-05-20, 08:55:06,VALID,917.093,VALID,0.0,VALID,81.569,VALID,233.483,VALID,23.879,VALID,125.0,VALID,0.301,
2018-05-20, 08:56:06,VALID,917.088,VALID,0.0,VALID,82.251,VALID,230.029,VALID,23.774,VALID,139.0,VALID,0.103,
2018-05-20, 08:57:06,VALID,917.086,VALID,0.0,VALID,82.79,VALID,225.163,VALID,23.781,VALID,161.0,VALID,0.115,
2018-05-20, 08:58:06,VALID,917.09,VALID,0.0,VALID,83.073,VALID,224.433,VALID,23.729,VALID,130.0,VALID,0.063,
2018-05-20, 08:59:06,VALID,917.101,VALID,0.0,VALID,82.847,VALID,227.166,VALID,23.767,VALID,44.0,VALID,0.492,
2018-05-20, 09:00:06,VALID,917.112,VALID,0.0,VALID,83.145,VALID,234.055,VALID,23.687,VALID,23.0,VALID,0.144,
2018-05-20, 09:01:06,VALID,917.118,VALID,0.0,VALID,83.256,VALID,243.235,VALID,23.714,VALID,55.0,VALID,0.144,
2018-05-20, 09:02:06,VALID,917.126,VALID,0.0,VALID,83.561,VALID,248.262,VALID,23.698,VALID,176.0,VALID,0.33,
2018-05-20, 09:03:06,VALID,917.116,VALID,0.0,VALID,83.586,VALID,245.509,VALID,23.682,VALID,144.0,VALID,0.19,
2018-05-20, 09:04:06,VALID,917.12,VALID,0.0,VALID,83.199,VALID,241.73,VALID,23.752,VALID,151.0,VALID,0.024,
2018-05-20, 09:05:06,VALID,917.112,VALID,0.0,VALID,82.939,VALID,239.018,VALID,23.872,VALID,173.0,VALID,0.157,
2018-05-20, 09:06:06,VALID,917.104,VALID,0.0,VALID,82.897,VALID,237.624,VALID,23.862,VALID,185.0,VALID,0.357,
2018-05-20, 09:07:06,VALID,917.105,VALID,0.0,VALID,83.292,VALID,234.917,VALID,23.768,VALID,140.0,VALID,0.193,
2018-05-20, 09:08:06,VALID,917.079,VALID,0.0,VALID,83.633,VALID,230.805,VALID,23.788,VALID,138.0,VALID,0.004,
2018-05-20, 09:09:06,VALID,917.077,VALID,0.0,VALID,84.015,VALID,229.224,VALID,23.821,VALID,167.0,VALID,0.44,
2018-05-20, 09:10:06,VALID,917.065,VALID,0.0,VALID,84.755,VALID,231.012,VALID,23.748,VALID,179.0,VALID,0.354,
2018-05-20, 09:11:06,VALID,917.072,VALID,0.0,VALID,84.808,VALID,233.315,VALID,23.727,VALID,158.0,VALID,0.234,
2018-05-20, 09:12:06,VALID,917.069,VALID,0.0,VALID,84.157,VALID,236.351,VALID,23.803,VALID,126.0,VALID,0.2,
2018-05-20, 09:13:06,VALID,917.087,VALID,0.0,VALID,84.034,VALID,241.114,VALID,23.894,VALID,115.0,VALID,0.138,
2018-05-20, 09:14:06,VALID,917.108,VALID,0.0,VALID,83.224,VALID,248.617,VALID,24.031,VALID,112.0,VALID,0.478,
2018-05-20, 09:15:06,VALID,917.111,VALID,0.0,VALID,80.872,VALID,259.481,VALID,23.999,VALID,121.0,VALID,0.077,
2018-05-20, 09:16:06,VALID,917.125,VALID,0.0,VALID,81.329,VALID,274.235,VALID,24.044,VALID,132.0,VALID,0.164,
2018-05-20, 09:17:06,VALID,917.149,VALID,0.0,VALID,81.464,VALID,290.914,VALID,24.185,VALID,120.0,VALID,0.317,
2018-05-20, 09:18:06,VALID,917.146,VALID,0.0,VALID,79.54,VALID,305.276,VALID,24.25,VALID,125.0,VALID,0.544,
2018-05-20, 09:19:06,VALID,917.154,VALID,0.0,VALID,80.093,VALID,322.597,VALID,24.292,VALID,146.0,VALID,0.248,
2018-05-20, 09:20:06,VALID,917.192,VALID,0.0,VALID,79.943,VALID,336.788,VALID,24.363,VALID,171.0,VALID,0.218,
2018-05-20, 09:21:06,VALID,917.19,VALID,0.0,VALID,79.721,VALID,381.052,VALID,24.252,VALID,179.0,VALID,0.048,
2018-05-20, 09:22:06,VALID,917.195,VALID,0.0,VALID,80.136,VALID,360.644,VALID,24.134,VALID,212.0,VALID,0.209,
2018-05-20, 09:23:06,VALID,917.205,VALID,0.0,VALID,80.805,VALID,341.941,VALID,24.017,VALID,214.0,VALID,0.379,
2018-05-20, 09:24:06,VALID,917.2,VALID,0.0,VALID,81.228,VALID,335.234,VALID,23.931,VALID,233.0,VALID,0.355,
2018-05-20, 09:25:06,VALID,917.207,VALID,0.0,VALID,81.828,VALID,327.528,VALID,23.814,VALID,219.0,VALID,0.305,
2018-05-20, 09:26:06,VALID,917.213,VALID,0.0,VALID,82.592,VALID,321.63,VALID,23.818,VALID,265.0,VALID,0.279,
2018-05-20, 09:27:06,VALID,917.207,VALID,0.0,VALID,84.168,VALID,321.893,VALID,23.978,VALID,293.0,VALID,0.055,
2018-05-20, 09:28:06,VALID,917.213,VALID,0.0,VALID,83.364,VALID,353.36,VALID,24.186,VALID,186.0,VALID,0.004,
2018-05-20, 09:29:06,VALID,917.216,VALID,0.0,VALID,83.048,VALID,350.594,VALID,24.303,VALID,151.0,VALID,0.0,
2018-05-20, 09:30:06,VALID,917.224,VALID,0.0,VALID,83.115,VALID,331.818,VALID,24.475,VALID,151.0,VALID,0.0,
2018-05-20, 09:31:06,VALID,917.206,VALID,0.0,VALID,81.928,VALID,321.23,VALID,24.663,VALID,226.0,VALID,0.004,
2018-05-20, 09:32:06,VALID,917.204,VALID,0.0,VALID,82.05,VALID,307.714,VALID,24.805,VALID,97.0,VALID,0.0,
2018-05-20, 09:33:06,VALID,917.197,VALID,0.0,VALID,81.998,VALID,302.435,VALID,24.925,VALID,26.0,VALID,0.015,
2018-05-20, 09:34:06,VALID,917.21,VALID,0.0,VALID,80.448,VALID,327.792,VALID,25.035,VALID,308.0,VALID,0.084,
2018-05-20, 09:35:06,VALID,917.222,VALID,0.0,VALID,81.051,VALID,291.356,VALID,25.053,VALID,54.0,VALID,0.366,
2018-05-20, 09:36:06,VALID,917.231,VALID,0.0,VALID,81.5,VALID,283.792,VALID,24.964,VALID,352.0,VALID,0.683,
2018-05-20, 09:37:06,VALID,917.238,VALID,0.0,VALID,82.705,VALID,282.753,VALID,24.939,VALID,20.0,VALID,0.803,
2018-05-20, 09:38:06,VALID,917.244,VALID,0.0,VALID,81.447,VALID,288.181,VALID,24.868,VALID,45.0,VALID,0.607,
2018-05-20, 09:39:06,VALID,917.256,VALID,0.0,VALID,81.99,VALID,299.833,VALID,24.727,VALID,32.0,VALID,0.791,
2018-05-20, 09:40:06,VALID,917.244,VALID,0.0,VALID,81.555,VALID,307.741,VALID,24.696,VALID,47.0,VALID,0.93,
2018-05-20, 09:41:06,VALID,917.247,VALID,0.0,VALID,81.386,VALID,313.321,VALID,24.646,VALID,48.0,VALID,0.8,
2018-05-20, 09:42:06,VALID,917.259,VALID,0.0,VALID,81.185,VALID,320.404,VALID,24.548,VALID,26.0,VALID,0.541,
2018-05-20, 09:43:06,VALID,917.265,VALID,0.0,VALID,81.316,VALID,325.355,VALID,24.381,VALID,50.0,VALID,0.148,
2018-05-20, 09:44:06,VALID,917.283,VALID,0.0,VALID,81.447,VALID,336.408,VALID,24.388,VALID,99.0,VALID,0.199,
2018-05-20, 09:45:06,VALID,917.293,VALID,0.0,VALID,80.174,VALID,364.397,VALID,24.47,VALID,98.0,VALID,0.157,
2018-05-20, 09:46:06,VALID,917.308,VALID,0.0,VALID,79.487,VALID,333.866,VALID,24.512,VALID,121.0,VALID,0.044,
2018-05-20, 09:47:06,VALID,917.331,VALID,0.0,VALID,79.442,VALID,327.119,VALID,24.639,VALID,175.0,VALID,0.032,
2018-05-20, 09:48:06,VALID,917.34,VALID,0.0,VALID,79.365,VALID,322.431,VALID,24.715,VALID,160.0,VALID,0.152,
2018-05-20, 09:49:06,VALID,917.337,VALID,0.0,VALID,79.551,VALID,317.233,VALID,24.891,VALID,93.0,VALID,0.339,
2018-05-20, 09:50:06,VALID,917.343,VALID,0.0,VALID,78.718,VALID,312.899,VALID,24.987,VALID,115.0,VALID,0.443,
2018-05-20, 09:51:06,VALID,917.346,VALID,0.0,VALID,78.095,VALID,313.642,VALID,25.048,VALID,174.0,VALID,0.339,
2018-05-20, 09:52:06,VALID,917.343,VALID,0.0,VALID,77.267,VALID,316.645,VALID,25.043,VALID,160.0,VALID,0.162,
2018-05-20, 09:53:06,VALID,917.344,VALID,0.0,VALID,77.203,VALID,324.507,VALID,25.078,VALID,132.0,VALID,0.102,
2018-05-20, 09:54:06,VALID,917.343,VALID,0.0,VALID,76.9,VALID,343.742,VALID,25.15,VALID,113.0,VALID,0.006,
2018-05-20, 09:55:06,VALID,917.353,VALID,0.0,VALID,76.55,VALID,387.458,VALID,25.283,VALID,113.0,VALID,0.0,
2018-05-20, 09:56:06,VALID,917.362,VALID,0.0,VALID,76.061,VALID,405.463,VALID,25.466,VALID,86.0,VALID,0.087,
2018-05-20, 09:57:06,VALID,917.368,VALID,0.0,VALID,77.163,VALID,366.852,VALID,25.611,VALID,84.0,VALID,0.009,
2018-05-20, 09:58:06,VALID,917.372,VALID,0.0,VALID,76.763,VALID,364.099,VALID,25.768,VALID,103.0,VALID,0.313,
2018-05-20, 09:59:06,VALID,917.387,VALID,0.0,VALID,76.492,VALID,363.132,VALID,25.768,VALID,122.0,VALID,0.646,
2018-05-20, 10:00:06,VALID,917.388,VALID,0.0,VALID,76.63,VALID,363.396,VALID,25.622,VALID,117.0,VALID,0.613,
2018-05-20, 10:01:06,VALID,917.4,VALID,0.0,VALID,76.864,VALID,361.232,VALID,25.449,VALID,141.0,VALID,0.428,
2018-05-20, 10:02:06,VALID,917.415,VALID,0.0,VALID,77.11,VALID,356.685,VALID,25.354,VALID,164.0,VALID,0.373,
2018-05-20, 10:03:06,VALID,917.417,VALID,0.0,VALID,78.183,VALID,352.975,VALID,25.289,VALID,118.0,VALID,0.787,
2018-05-20, 10:04:06,VALID,917.438,VALID,0.0,VALID,78.651,VALID,347.946,VALID,25.19,VALID,138.0,VALID,0.786,
2018-05-20, 10:05:06,VALID,917.451,VALID,0.0,VALID,78.174,VALID,346.089,VALID,25.089,VALID,132.0,VALID,0.679,
2018-05-20, 10:06:06,VALID,917.458,VALID,0.0,VALID,78.766,VALID,351.963,VALID,24.976,VALID,123.0,VALID,1.081,
2018-05-20, 10:07:06,VALID,917.453,VALID,0.0,VALID,77.304,VALID,361.622,VALID,24.924,VALID,134.0,VALID,0.842,
2018-05-20, 10:08:06,VALID,917.448,VALID,0.0,VALID,76.332,VALID,372.768,VALID,24.867,VALID,113.0,VALID,0.264,
2018-05-20, 10:09:06,VALID,917.435,VALID,0.0,VALID,76.401,VALID,378.293,VALID,25.003,VALID,130.0,VALID,0.569,
2018-05-20, 10:10:06,VALID,917.418,VALID,0.0,VALID,76.012,VALID,380.541,VALID,25.056,VALID,117.0,VALID,0.48,
2018-05-20, 10:11:06,VALID,917.401,VALID,0.0,VALID,76.149,VALID,387.083,VALID,25.094,VALID,113.0,VALID,0.045,
2018-05-20, 10:12:06,VALID,917.41,VALID,0.0,VALID,76.05,VALID,411.166,VALID,25.151,VALID,156.0,VALID,0.194,
2018-05-20, 10:13:06,VALID,917.388,VALID,0.0,VALID,74.432,VALID,407.415,VALID,25.134,VALID,145.0,VALID,0.049,
2018-05-20, 10:14:06,VALID,917.368,VALID,0.0,VALID,73.444,VALID,417.235,VALID,25.276,VALID,104.0,VALID,0.137,
2018-05-20, 10:15:06,VALID,917.348,VALID,0.0,VALID,73.057,VALID,425.156,VALID,25.426,VALID,67.0,VALID,0.214,
2018-05-20, 10:16:06,VALID,917.334,VALID,0.0,VALID,71.41,VALID,438.372,VALID,25.475,VALID,102.0,VALID,0.094,
2018-05-20, 10:17:06,VALID,917.312,VALID,0.0,VALID,70.303,VALID,512.879,VALID,25.609,VALID,70.0,VALID,0.0,
2018-05-20, 10:18:06,VALID,917.292,VALID,0.0,VALID,71.265,VALID,479.39,VALID,25.812,VALID,325.0,VALID,0.17,
2018-05-20, 10:19:06,VALID,917.268,VALID,0.0,VALID,71.841,VALID,475.617,VALID,25.972,VALID,316.0,VALID,0.36,
2018-05-20, 10:20:06,VALID,917.243,VALID,0.0,VALID,70.578,VALID,459.401,VALID,26.16,VALID,344.0,VALID,0.452,
2018-05-20, 10:21:06,VALID,917.235,VALID,0.0,VALID,70.536,VALID,460.877,VALID,26.073,VALID,355.0,VALID,0.197,
2018-05-20, 10:22:06,VALID,917.219,VALID,0.0,VALID,71.275,VALID,465.903,VALID,26.089,VALID,2.0,VALID,0.105,
2018-05-20, 10:23:06,VALID,917.215,VALID,0.0,VALID,70.96,VALID,460.108,VALID,26.263,VALID,347.0,VALID,0.02,
2018-05-20, 10:24:06,VALID,917.209,VALID,0.0,VALID,69.815,VALID,449.581,VALID,26.495,VALID,337.0,VALID,0.0,
2018-05-20, 10:25:06,VALID,917.208,VALID,0.0,VALID,70.415,VALID,454.896,VALID,26.73,VALID,6.0,VALID,0.132,
2018-05-20, 10:26:06,VALID,917.2,VALID,0.0,VALID,69.266,VALID,435.419,VALID,26.777,VALID,28.0,VALID,0.812,
2018-05-20, 10:27:06,VALID,917.2,VALID,0.0,VALID,68.687,VALID,433.864,VALID,26.624,VALID,47.0,VALID,0.769,
2018-05-20, 10:28:06,VALID,917.183,VALID,0.0,VALID,69.116,VALID,431.557,VALID,26.347,VALID,22.0,VALID,0.439,
2018-05-20, 10:29:06,VALID,917.191,VALID,0.0,VALID,70.187,VALID,424.469,VALID,26.156,VALID,359.0,VALID,0.276,
2018-05-20, 10:30:06,VALID,917.192,VALID,0.0,VALID,70.506,VALID,421.268,VALID,26.291,VALID,77.0,VALID,0.326,
2018-05-20, 10:31:06,VALID,917.183,VALID,0.0,VALID,70.356,VALID,415.901,VALID,26.494,VALID,136.0,VALID,0.393,
2018-05-20, 10:32:06,VALID,917.172,VALID,0.0,VALID,67.667,VALID,418.702,VALID,26.683,VALID,212.0,VALID,0.268,
2018-05-20, 10:33:06,VALID,917.156,VALID,0.0,VALID,67.008,VALID,424.25,VALID,26.816,VALID,185.0,VALID,0.069,
2018-05-20, 10:34:06,VALID,917.151,VALID,0.0,VALID,66.013,VALID,441.137,VALID,26.781,VALID,173.0,VALID,0.443,
2018-05-20, 10:35:06,VALID,917.127,VALID,0.0,VALID,66.92,VALID,467.183,VALID,26.419,VALID,181.0,VALID,0.663,
2018-05-20, 10:36:06,VALID,917.128,VALID,0.0,VALID,68.42,VALID,554.612,VALID,26.123,VALID,184.0,VALID,0.436,